DateTime,F1_A11,F1_S11,BsB_S11,BsG_S11,BsR_S11,BbsB_S11,BbsG_S11,BbsR_S11,BaB_A11,BaG_A11,BaR_A11,T_S11,U_S11,P_S11,T1_A11
2016-06-23T00:00:00Z,0000380,20000600,,,,,,,,,,26.5,03.2,0665.7,34.5
2016-06-23T00:01:00Z,0000380,20000600,,,,,,,,,,26.5,03.2,0665.7,34.5
2016-06-23T00:02:00Z,0000380,20000600,,,,,,,,,,26.5,03.2,0665.7,34.5
2016-06-23T00:03:00Z,0000380,60000600,,,,,,,,,,26.5,03.2,0665.7,34.5
2016-06-23T00:04:00Z,0000380,40000600,-000.33,-000.45,0000.28,-000.33,-000.32,-000.14,-000.04,0000.31,-000.19,26.7,03.5,0666.4,34.5
2016-06-23T00:05:00Z,0000380,00000600,-001.61,0000.09,-000.23,-000.32,-000.11,-000.48,0000.31,0000.01,0000.08,26.7,03.5,0666.5,34.5
2016-06-23T00:06:00Z,0000380,00000600,-000.49,-000.47,-000.09,-000.35,-000.33,-000.32,0000.01,-000.07,0000.01,26.7,03.5,0666.5,34.5
2016-06-23T00:07:00Z,0000380,00000600,-000.84,-000.36,-000.02,-000.52,-000.27,-000.06,-000.03,-000.05,-000.11,26.6,03.5,0666.5,34.5
2016-06-23T00:08:00Z,0000380,00000600,0000.37,0000.48,-000.18,-000.11,-000.22,-000.02,-000.10,-000.18,0000.10,26.6,03.3,0666.5,34.5
2016-06-23T00:09:00Z,0000380,00000600,-000.62,-000.21,-000.56,0000.00,-000.02,-000.44,-000.13,-000.03,-000.02,26.6,03.2,0666.5,34.5
2016-06-23T00:10:00Z,0000380,00000600,-000.40,0000.39,0000.19,-000.06,0000.02,-000.29,-000.09,-000.04,-000.20,26.6,03.2,0666.5,34.5
2016-06-23T00:11:00Z,0000380,00000600,0000.49,0000.38,0000.09,-000.21,0000.28,-000.05,0000.02,-000.03,0000.10,26.6,03.2,0666.5,34.5
2016-06-23T00:12:00Z,0000380,00000600,-000.38,0000.43,-000.26,0000.10,-000.16,-000.17,0000.06,-000.02,-000.00,26.6,03.2,0666.5,34.5
2016-06-23T00:13:00Z,0000380,00000600,-000.49,-000.14,-000.12,-000.02,0000.14,-000.02,-000.25,-000.05,-000.00,26.6,03.2,0666.5,34.5
2016-06-23T00:14:00Z,0000380,00000600,-000.27,-000.29,0000.12,-000.05,-000.36,-000.03,0000.38,-000.08,0000.10,26.6,03.2,0666.4,34.5
2016-06-23T00:15:00Z,0000380,00000600,0000.33,-000.98,0000.05,0000.08,-000.25,-000.17,-000.27,0000.09,0000.20,26.6,03.3,0666.4,34.6
2016-06-23T00:16:00Z,0000380,00000600,0000.49,-000.32,-000.09,-000.59,-000.28,0000.19,0000.19,0000.40,-000.38,26.6,03.4,0666.4,34.6
2016-06-23T00:17:00Z,0000380,00000600,0000.03,-000.05,0000.10,-000.17,0000.13,-000.11,0000.36,-000.06,0000.23,26.6,03.4,0666.4,34.6
2016-06-23T00:18:00Z,0000380,00000600,-000.26,-000.05,-000.05,-000.56,-000.24,-000.06,-000.06,0000.15,0000.06,26.5,03.4,0666.4,34.6
2016-06-23T00:19:00Z,0000380,00000600,0000.35,0000.14,0000.05,-000.27,-000.30,0000.10,-000.13,-000.02,-000.04,26.5,03.5,0666.4,34.6
2016-06-23T00:20:00Z,0000380,00000600,-000.73,-000.11,-000.19,-000.46,0000.24,-000.32,-000.06,-000.02,0000.23,26.5,03.5,0666.4,34.6
2016-06-23T00:21:00Z,0000380,00000600,-000.86,0000.36,-000.16,0000.03,-000.32,-000.08,0000.28,-000.05,-000.12,26.5,03.6,0666.4,34.6
2016-06-23T00:22:00Z,0000380,00000600,-000.64,-000.59,-000.42,0000.10,-000.08,-000.37,-000.18,-000.06,0000.07,26.5,03.6,0666.4,34.6
2016-06-23T00:23:00Z,0000380,00000600,-000.04,0000.39,-000.42,0000.10,-000.21,-000.62,0000.04,0000.12,-000.15,26.6,03.6,0666.4,34.6
2016-06-23T00:24:00Z,0000380,00000600,-000.75,0000.38,-000.18,-000.40,-000.19,-000.16,0000.14,0000.12,0000.40,26.6,03.6,0666.3,34.6
2016-06-23T00:25:00Z,0000380,00000600,-000.22,0000.43,-000.56,-000.24,0000.02,-000.06,-000.07,0000.07,0000.06,26.6,03.6,0666.4,34.6
2016-06-23T00:26:00Z,0000380,00000600,-000.35,0000.20,-000.05,-000.30,-000.09,-000.06,0000.14,-000.08,-000.30,26.6,03.6,0666.4,34.6
2016-06-23T00:27:00Z,0000380,00000600,-000.57,0000.13,-000.07,-000.08,0000.06,-000.03,-000.02,-000.17,0000.02,26.6,03.6,0666.3,34.6
2016-06-23T00:28:00Z,0000380,00000600,0000.40,-000.50,-000.12,0000.33,-000.28,-000.02,0000.01,0000.31,0000.25,26.6,03.5,0666.4,34.6
2016-06-23T00:29:00Z,0000380,00000600,-000.78,-000.66,0000.47,-000.60,-000.03,-000.22,0000.08,0000.02,-000.14,26.5,03.6,0666.3,34.6
2016-06-23T00:30:00Z,0000380,00000600,-000.99,-000.05,0000.26,0000.05,-000.70,-000.29,-000.14,-000.25,0000.16,26.5,03.6,0666.3,34.5
2016-06-23T00:31:00Z,0000380,00000600,-000.57,-001.11,0000.17,-000.27,-000.13,-000.14,0000.04,0000.24,-000.23,26.5,03.6,0666.3,34.5
2016-06-23T00:32:00Z,0000380,00000600,-000.07,-000.47,0000.17,-000.43,-000.16,0000.10,0000.13,-000.15,0000.16,26.5,03.6,0666.3,34.5
2016-06-23T00:33:00Z,0000380,00000600,-000.33,0000.04,-000.12,-000.08,-000.46,-000.11,-000.01,0000.10,-000.15,26.5,03.6,0666.3,34.5
2016-06-23T00:34:00Z,0000380,00000600,-001.19,-000.13,0000.02,0000.06,-000.13,-000.05,-000.14,-000.01,-000.06,26.5,03.5,0666.3,34.5
2016-06-23T00:35:00Z,0000380,00000600,-000.27,-000.14,-000.14,0000.19,-000.05,-000.29,-000.15,0000.05,0000.10,26.5,03.5,0666.3,34.5
2016-06-23T00:36:00Z,0000380,00000600,-000.40,-000.05,-000.09,-000.54,0000.11,-000.49,0000.21,-000.09,-000.04,26.5,03.6,0666.3,34.5
2016-06-23T00:37:00Z,0000380,00000600,0000.80,0000.11,-000.16,-000.70,0000.02,-000.02,-000.08,0000.13,0000.31,26.5,03.5,0666.3,34.5
2016-06-23T00:38:00Z,0000380,00000600,0000.55,0000.11,-000.33,-000.51,-000.22,-000.11,0000.24,-000.03,-000.18,26.5,03.5,0666.3,34.5
2016-06-23T00:39:00Z,0000380,00000600,0000.37,0000.44,0000.19,-000.11,-000.47,-000.29,-000.24,-000.02,-000.32,26.5,03.6,0666.3,34.5
2016-06-23T00:40:00Z,0000380,00000600,-000.37,-000.47,-000.12,-000.29,-000.19,-000.40,-000.10,-000.20,0000.20,26.5,03.6,0666.3,34.5
2016-06-23T00:41:00Z,0000380,00000600,0000.46,-000.21,-000.03,-000.02,0000.14,-000.30,0000.14,0000.28,0000.03,26.5,03.5,0666.3,34.5
2016-06-23T00:42:00Z,0000380,00000600,-000.05,-000.93,-000.28,-000.11,-000.58,-000.24,-000.22,-000.13,-000.05,26.5,03.6,0666.3,34.5
2016-06-23T00:43:00Z,0000380,00000600,0000.02,-000.14,-000.09,0000.05,0000.02,-000.19,0000.34,-000.12,0000.16,26.5,03.5,0666.2,34.5
2016-06-23T00:44:00Z,0000380,00000600,-000.05,0000.05,0000.21,-000.63,-000.21,-000.16,-000.03,0000.06,-000.11,26.5,03.5,0666.2,34.5
2016-06-23T00:45:00Z,0000380,00000600,0000.62,0000.41,-000.12,0000.16,0000.02,-000.11,-000.02,0000.16,-000.04,26.5,03.5,0666.2,34.6
2016-06-23T00:46:00Z,0000380,00000600,0000.27,-001.07,-000.09,-000.40,0000.09,-000.27,0000.05,0000.07,0000.64,26.5,03.6,0666.2,34.6
2016-06-23T00:47:00Z,0000380,00000600,0000.30,-000.14,0000.39,0000.40,-000.11,-000.25,-000.14,-000.17,-000.64,26.5,03.5,0666.2,34.6
2016-06-23T00:48:00Z,0000380,00000600,0000.36,-000.37,0000.05,-000.10,0000.11,-000.38,-000.15,-000.09,-000.04,26.5,03.4,0666.2,34.6
2016-06-23T00:49:00Z,0000380,00000600,0000.57,-000.36,0000.00,0000.21,-000.55,0000.06,0000.16,-000.02,-000.01,26.5,03.5,0666.2,34.6
2016-06-23T00:50:00Z,0000380,00000600,0000.00,0000.19,-000.02,0000.62,-000.24,-000.06,0000.11,0000.05,0000.20,26.5,03.5,0666.2,34.6
2016-06-23T00:51:00Z,0000380,00000600,-000.28,0000.00,0000.24,0000.11,0000.06,-000.13,-000.16,0000.08,-000.22,26.4,03.5,0666.2,34.6
2016-06-23T00:52:00Z,0000380,00000600,-000.10,0000.00,0000.06,-000.67,0000.09,0000.05,0000.19,0000.05,0000.35,26.5,03.5,0666.2,34.6
2016-06-23T00:53:00Z,0000380,00000600,-000.22,0000.04,0000.42,-000.40,0000.06,0000.16,-000.22,-000.36,-000.53,26.4,03.4,0666.2,34.6
2016-06-23T00:54:00Z,0000380,00000600,-000.62,0000.13,-000.21,-000.63,-000.08,-000.03,-000.12,0000.12,0000.06,26.5,03.4,0666.2,34.6
2016-06-23T00:55:00Z,0000380,00000600,0000.31,-000.02,-000.14,0000.30,-000.05,-000.27,-000.07,0000.07,-000.16,26.4,03.4,0666.2,34.6
2016-06-23T00:56:00Z,0000380,00000600,0000.26,-000.20,0000.05,0000.38,-000.06,-000.35,0000.19,0000.22,0000.51,26.4,03.4,0666.2,34.6
2016-06-23T00:57:00Z,0000380,40000600,,,,,,,,,,,,0666.3,34.6
2016-06-23T00:58:00Z,0000380,60000600,,,,,,,,,,26.3,03.3,0665.3,34.6
2016-06-23T00:59:00Z,0000380,20000600,,,,,,,,,,26.3,03.2,0665.3,34.6
2016-06-23T01:00:00Z,0000380,20000600,,,,,,,,,,26.3,03.2,0665.3,34.6
2016-06-23T01:01:00Z,0000380,20000600,,,,,,,,,,26.3,03.2,0665.3,34.6
2016-06-23T01:02:00Z,0000380,20000600,,,,,,,,,,26.3,03.2,0665.3,34.6
2016-06-23T01:03:00Z,0000380,60000600,,,,,,,,,,26.3,03.2,0665.3,34.6
2016-06-23T01:04:00Z,0000380,40000600,-000.24,-000.25,0000.42,-000.21,-000.33,0000.22,0000.19,-000.04,0000.20,26.3,03.3,0666.1,34.6
2016-06-23T01:05:00Z,0000380,00000600,0000.00,-000.61,0000.35,0000.41,0000.62,0000.11,-000.10,-000.13,-000.40,26.4,03.2,0666.2,34.6
2016-06-23T01:06:00Z,0000380,00000600,0000.02,-000.45,0000.31,-000.05,-000.06,0000.03,-000.03,-000.12,-000.08,26.4,03.2,0666.2,34.6
2016-06-23T01:07:00Z,0000380,00000600,0000.45,0001.12,0000.02,0000.05,-000.06,0000.00,-000.15,0000.21,0000.00,26.4,03.2,0666.2,34.6
2016-06-23T01:08:00Z,0000380,00000600,-000.36,-000.04,-000.26,0000.40,-000.22,-000.06,-000.04,-000.13,0000.18,26.3,03.2,0666.2,34.6
2016-06-23T01:09:00Z,0000380,00000600,0000.86,-000.11,0000.20,-000.11,-000.21,-000.14,-000.01,0000.02,-000.04,26.4,03.1,0666.2,34.6
2016-06-23T01:10:00Z,0000380,00000600,0000.50,-000.28,-000.21,0000.81,-000.09,0000.40,0000.17,-000.04,-000.01,26.4,03.1,0666.2,34.6
2016-06-23T01:11:00Z,0000380,00000600,-000.77,0000.47,-000.33,0000.27,0000.00,0000.37,-000.23,-000.19,-000.26,26.4,03.0,0666.2,34.6
2016-06-23T01:12:00Z,0000380,00000600,-000.16,-000.63,0000.44,0000.33,-000.27,0000.03,0000.07,0000.01,0000.08,26.3,03.0,0666.2,34.6
2016-06-23T01:13:00Z,0000380,00000600,0000.05,-000.29,-000.28,0000.11,-000.13,0000.02,0000.06,-000.07,-000.24,26.4,02.9,0666.2,34.6
2016-06-23T01:14:00Z,0000380,00000600,0000.15,-000.50,-000.42,0000.24,-000.24,-000.13,-000.02,0000.00,0000.18,26.3,02.9,0666.2,34.6
2016-06-23T01:15:00Z,0000380,00000600,-000.46,-000.07,0000.00,0000.60,0000.13,-000.21,-000.05,0000.17,-000.13,26.3,03.0,0666.2,34.6
2016-06-23T01:16:00Z,0000380,00000600,0000.47,0000.14,-000.30,0000.40,-000.13,0000.05,-000.00,-000.27,0000.29,26.3,03.0,0666.2,34.6
2016-06-23T01:17:00Z,0000380,00000600,-000.40,0000.16,-000.14,0000.48,-000.16,-000.21,-000.08,0000.09,-000.07,26.3,02.9,0666.2,34.6
2016-06-23T01:18:00Z,0000380,00000600,-000.47,-000.13,0000.16,0000.57,-000.08,0000.02,0000.15,-000.12,0000.05,26.3,02.9,0666.2,34.6
2016-06-23T01:19:00Z,0000380,00000600,0000.42,-000.88,0000.02,-000.11,0000.16,0000.00,-000.10,0000.06,0000.09,26.3,02.9,0666.2,34.6
2016-06-23T01:20:00Z,0000380,00000600,-000.64,-000.50,0000.33,0000.35,0000.02,0000.22,-000.14,-000.11,-000.22,26.3,02.8,0666.2,34.6
2016-06-23T01:21:00Z,0000380,00000600,-000.40,-000.20,0000.30,-000.08,-000.02,0000.19,-000.04,0000.06,-000.17,26.3,02.7,0666.2,34.6
2016-06-23T01:22:00Z,0000380,00000600,-000.47,0000.04,-000.31,0000.00,-000.38,-000.06,0000.15,0000.03,-000.31,26.3,02.8,0666.2,34.6
2016-06-23T01:23:00Z,0000380,00000600,-000.49,0000.29,-000.21,-000.22,-000.13,0000.17,-000.09,-000.07,0000.14,26.3,02.7,0666.2,34.6
2016-06-23T01:24:00Z,0000380,00000600,-000.91,-000.30,-000.17,0000.11,0000.43,0000.00,0000.25,-000.04,0000.23,26.3,02.7,0666.2,34.6
2016-06-23T01:25:00Z,0000380,00000600,-000.66,0000.07,-000.10,0000.36,-000.25,-000.03,-000.18,0000.01,0000.01,26.3,02.8,0666.2,34.6
2016-06-23T01:26:00Z,0000380,00000600,-000.40,0000.04,0000.09,-000.25,-000.24,0000.08,0000.18,0000.28,-000.05,26.3,02.8,0666.2,34.6
2016-06-23T01:27:00Z,0000380,00000600,-001.02,-000.20,0000.28,0000.30,0000.06,0000.25,0000.07,-000.32,-000.13,26.3,02.8,0666.1,34.6
2016-06-23T01:28:00Z,0000380,00000600,-000.78,-000.05,-000.05,-000.30,0000.54,0000.38,-000.22,0000.13,-000.06,26.3,02.8,0666.1,34.6
2016-06-23T01:29:00Z,0000380,00000600,-000.60,-000.09,0000.07,0000.25,0000.21,0000.44,0000.23,0000.02,0000.01,26.3,02.8,0666.1,34.6
2016-06-23T01:30:00Z,0000380,00000600,-000.22,-000.21,0000.23,0000.19,0000.17,0000.05,-000.20,-000.12,0000.29,26.3,02.8,0666.1,34.6
2016-06-23T01:31:00Z,0000380,00000600,0000.64,-000.04,-000.05,-000.41,0000.11,0000.00,-000.08,0000.22,0000.01,26.3,02.7,0666.1,34.6
2016-06-23T01:32:00Z,0000380,00000600,0000.22,0000.11,-000.17,0000.29,-000.21,-000.06,0000.05,-000.24,-000.35,26.3,02.6,0666.1,34.6
2016-06-23T01:33:00Z,0000380,00000600,-000.66,-000.36,-000.24,0000.17,0000.30,0000.22,-000.07,-000.01,0000.10,26.3,02.6,0666.1,34.6
2016-06-23T01:34:00Z,0000380,00000600,-000.75,-000.27,0000.19,-000.06,0000.09,0000.16,-000.07,0000.06,-000.36,26.3,02.6,0666.1,34.6
2016-06-23T01:35:00Z,0000380,00000600,-000.24,0000.30,0000.16,0000.08,0000.14,0000.11,0000.16,0000.05,0000.33,26.3,02.7,0666.0,34.6
2016-06-23T01:36:00Z,0000380,00000600,0000.27,0000.13,-000.06,0000.33,-000.16,0000.24,-000.14,0000.10,0000.01,26.3,02.7,0666.0,34.6
2016-06-23T01:37:00Z,0000380,00000600,0000.18,0000.25,-000.10,0000.06,0000.62,-000.24,-000.08,-000.19,-000.02,26.3,02.6,0666.0,34.6
2016-06-23T01:38:00Z,0000380,00000600,0000.11,0000.21,-000.17,0000.63,0000.13,0000.16,-000.01,-000.10,-000.26,26.3,02.6,0666.0,34.6
2016-06-23T01:39:00Z,0000380,00000600,-000.05,0000.20,-000.12,0000.29,0000.28,-000.03,0000.03,-000.22,0000.01,26.3,02.4,0666.0,34.6
2016-06-23T01:40:00Z,0000380,00000600,0000.20,-000.27,-000.30,-000.14,0000.19,-000.05,-000.04,0000.07,-000.05,26.3,02.4,0665.9,34.6
2016-06-23T01:41:00Z,0000380,00000600,-000.09,0000.02,0000.30,0000.43,-000.33,0000.84,-000.05,-000.05,-000.39,26.3,02.3,0665.9,34.6
2016-06-23T01:42:00Z,0000380,00000600,-000.27,0000.02,0000.03,0000.05,0000.17,0000.11,0000.04,-000.01,0000.13,26.3,02.3,0665.9,34.6
2016-06-23T01:43:00Z,0000380,00000600,-000.60,0000.04,-000.26,0000.13,0000.05,0000.14,-000.02,-000.05,0000.20,26.3,02.3,0665.9,34.6
2016-06-23T01:44:00Z,0000380,00000600,-000.68,-000.20,0000.02,0000.62,-000.21,-000.17,0000.09,-000.11,-000.29,26.3,02.4,0665.8,34.6
2016-06-23T01:45:00Z,0000380,00000600,0000.16,-000.18,-000.07,-000.02,-000.16,-000.16,0000.12,0000.22,0000.47,26.3,02.4,0666.0,34.6
2016-06-23T01:46:00Z,0000380,00000600,-000.64,-000.02,0000.24,-000.21,-000.05,0000.08,-000.28,-000.17,-000.36,26.2,02.4,0666.0,34.6
2016-06-23T01:47:00Z,0000380,00000600,-000.97,-000.23,-000.35,0000.13,-000.09,0000.06,-000.12,0000.20,0000.23,26.3,02.3,0666.0,34.6
2016-06-23T01:48:00Z,0000380,00000600,-000.40,0000.13,0000.31,0000.22,0000.02,-000.13,0000.08,-000.11,-000.10,26.3,02.3,0666.0,34.6
2016-06-23T01:49:00Z,0000380,00000600,-000.07,-000.20,-000.05,0000.78,-000.13,0000.05,0000.06,-000.02,-000.21,26.3,02.3,0666.0,34.6
2016-06-23T01:50:00Z,0000380,00000600,0000.31,-000.07,-000.26,-000.22,0000.43,0000.21,0000.63,0000.59,0000.80,26.3,02.3,0666.0,34.6
2016-06-23T01:51:00Z,0000380,00000600,0000.00,0000.55,0000.34,0000.52,0000.06,0000.51,-000.68,-000.48,-000.82,26.3,02.5,0666.0,34.6
2016-06-23T01:52:00Z,0000380,00000600,-001.17,-000.64,-000.23,-000.17,0000.14,0000.32,0000.03,-000.15,0000.18,26.3,02.3,0666.1,34.6
2016-06-23T01:53:00Z,0000380,00000600,-000.40,0000.40,0000.05,-000.13,0000.05,-000.03,0000.12,-000.01,-000.34,26.2,02.2,0666.1,34.6
2016-06-23T01:54:00Z,0000380,00000600,0000.29,-000.25,0000.03,-000.22,0000.02,-000.05,-000.12,-000.06,-000.07,26.2,02.2,0666.1,34.6
2016-06-23T01:55:00Z,0000380,00000600,-000.06,0000.16,-000.01,0000.13,-000.02,0000.13,0000.03,-000.03,0000.38,26.3,02.1,0666.1,34.6
2016-06-23T01:56:00Z,0000380,00000600,-000.07,0000.14,-000.37,-000.30,0000.33,-000.21,0000.01,0000.06,0000.02,26.2,02.2,0666.1,34.6
2016-06-23T01:57:00Z,0000380,40000600,,,,,,,,,,,,0666.0,34.6
2016-06-23T01:58:00Z,0000380,60000600,,,,,,,,,,26.0,02.5,0665.3,34.6
2016-06-23T01:59:00Z,0000380,20000600,,,,,,,,,,26.0,02.4,0665.3,34.6
2016-06-23T02:00:00Z,0000380,20000600,,,,,,,,,,26.0,02.4,0665.3,34.6
2016-06-23T02:01:00Z,0000380,20000600,,,,,,,,,,26.0,02.2,0665.3,34.6
2016-06-23T02:02:00Z,0000380,20000600,,,,,,,,,,26.0,02.2,0665.3,34.6
2016-06-23T02:03:00Z,0000380,60000600,,,,,,,,,,26.1,02.2,0665.3,34.6
2016-06-23T02:04:00Z,0000380,40000600,-000.46,0000.21,-000.12,0000.41,-000.06,-000.08,-000.04,-000.04,0000.05,26.2,02.0,0666.1,34.6
2016-06-23T02:05:00Z,0000380,00000600,-000.15,0000.38,-000.12,0000.32,-000.05,0000.35,-000.02,-000.19,-000.26,26.2,02.0,0666.2,34.6
2016-06-23T02:06:00Z,0000380,00000600,-000.67,0000.11,-000.24,0000.43,0000.28,0000.10,0000.02,-000.14,-000.01,26.2,02.0,0666.2,34.6
2016-06-23T02:07:00Z,0000380,00000600,-000.11,-000.05,-000.30,0000.24,-000.05,0000.11,0000.06,0000.09,0000.17,26.2,02.0,0666.2,34.6
2016-06-23T02:08:00Z,0000380,00000600,-000.53,0000.14,-000.12,0000.05,-000.05,0000.06,-000.13,-000.11,-000.02,26.2,02.0,0666.2,34.6
2016-06-23T02:09:00Z,0000380,00000600,-000.98,0000.25,-000.10,-000.24,0000.35,-000.19,0000.07,0000.15,-000.45,26.2,01.9,0666.2,34.6
2016-06-23T02:10:00Z,0000380,00000600,0000.07,0000.79,-000.10,-000.25,-000.02,-000.08,0000.02,-000.15,0000.29,26.2,01.9,0666.2,34.6
2016-06-23T02:11:00Z,0000380,00000600,0000.86,-000.02,-000.35,0000.00,0000.19,0000.25,-000.21,-000.12,-000.27,26.2,01.9,0666.2,34.6
2016-06-23T02:12:00Z,0000380,00000600,0000.21,-000.38,-000.02,0000.48,0000.24,-000.16,0000.06,0000.05,0000.18,26.2,01.8,0666.2,34.6
2016-06-23T02:13:00Z,0000380,00000600,0001.06,-000.27,-000.63,0000.40,0000.30,-000.19,0000.03,0000.08,-000.11,26.2,01.8,0666.2,34.6
2016-06-23T02:14:00Z,0000380,00000600,0000.40,0000.08,-000.25,-000.05,-000.02,0000.05,0000.13,0000.02,0000.11,26.2,01.9,0666.1,34.6
2016-06-23T02:15:00Z,0000380,00000600,0000.55,0000.37,0000.08,-000.67,0000.02,0000.37,-000.12,-000.03,-000.11,26.2,01.9,0666.1,34.6
2016-06-23T02:16:00Z,0000380,00000600,0000.86,-000.50,0000.19,0000.14,0000.41,0000.13,0000.04,-000.01,0000.16,26.2,01.8,0666.1,34.6
2016-06-23T02:17:00Z,0000380,00000600,0000.05,0000.05,-000.38,-000.30,-000.02,-000.59,-000.06,-000.05,-000.27,26.2,01.8,0666.1,34.6
2016-06-23T02:18:00Z,0000380,00000600,0000.11,0000.25,0000.16,0000.02,-000.11,0000.14,0000.07,0000.14,0000.19,26.2,01.9,0666.1,34.6
2016-06-23T02:19:00Z,0000380,00000600,0000.96,0000.70,-000.13,0000.14,-000.06,0000.14,-000.05,0000.03,0000.13,26.2,01.8,0666.1,34.6
2016-06-23T02:20:00Z,0000380,00000600,-000.24,0000.28,0000.16,-000.68,-000.02,-000.10,0000.01,0000.01,0000.12,26.2,01.9,0666.1,34.6
2016-06-23T02:21:00Z,0000380,00000600,0001.00,0000.16,-000.18,-000.13,-000.14,0000.00,0000.28,0000.11,-000.16,26.2,01.8,0666.1,34.6
2016-06-23T02:22:00Z,0000380,00000600,-000.27,0000.11,-000.10,0000.25,0000.38,0000.19,-000.15,-000.16,-000.15,26.2,01.8,0666.1,34.6
2016-06-23T02:23:00Z,0000380,00000600,-000.53,-000.12,-000.68,0000.05,0000.14,-000.03,-000.03,-000.10,-000.02,26.2,01.8,0666.1,34.6
2016-06-23T02:24:00Z,0000380,00000600,0000.35,-000.59,-000.02,-000.48,0000.06,0000.14,-000.01,-000.08,-000.13,26.2,01.9,0666.1,34.6
2016-06-23T02:25:00Z,0000380,00000600,-000.57,0000.43,-000.24,-000.13,-000.05,0000.19,0000.11,0000.17,0000.13,26.2,01.9,0666.1,34.6
2016-06-23T02:26:00Z,0000380,00000600,-000.16,0000.34,-000.75,-000.06,-000.21,0000.02,-000.21,-000.17,0000.18,26.2,01.9,0666.1,34.6
2016-06-23T02:27:00Z,0000380,00000600,0000.42,-000.09,-000.60,0000.40,-000.17,0000.11,0000.03,0000.13,0000.31,26.2,01.8,0666.1,34.6
2016-06-23T02:28:00Z,0000380,00000600,-000.08,0000.47,-000.15,0000.00,0000.21,0000.03,0000.02,-000.01,-000.34,26.2,01.8,0666.1,34.6
2016-06-23T02:29:00Z,0000380,00000600,0000.36,0000.08,-000.48,-000.62,0000.63,-000.19,-000.00,-000.10,-000.15,26.2,01.8,0666.1,34.6
2016-06-23T02:30:00Z,0000380,00000600,0000.30,0000.70,0000.41,-000.25,0000.27,0000.21,0000.10,-000.22,-000.13,26.2,01.8,0666.1,34.6
2016-06-23T02:31:00Z,0000380,00000600,-000.58,0000.84,0000.06,-000.11,0000.19,0000.10,-000.07,0000.05,-000.13,26.2,01.7,0666.1,34.6
2016-06-23T02:32:00Z,0000380,00000600,0001.16,-000.05,0000.34,-000.40,0000.03,0000.06,-000.16,0000.12,0000.28,26.2,01.7,0666.1,34.6
2016-06-23T02:33:00Z,0000380,00000600,0000.39,0000.30,0000.29,-000.16,-000.06,-000.10,0000.00,0000.02,-000.01,26.2,01.7,0666.1,34.6
2016-06-23T02:34:00Z,0000380,00000600,-000.13,0000.04,-000.31,0000.76,0000.54,-000.10,0000.03,-000.14,-000.28,26.2,01.7,0666.1,34.6
2016-06-23T02:35:00Z,0000380,00000600,0000.49,-000.12,0000.36,-000.27,-000.09,0000.24,0000.01,0000.16,-000.01,26.2,01.7,0666.1,34.6
2016-06-23T02:36:00Z,0000380,00000600,0000.70,-000.33,0000.08,0000.24,-000.27,0000.24,-000.09,0000.03,0000.22,26.2,01.7,0666.1,34.6
2016-06-23T02:37:00Z,0000380,00000600,0000.02,0000.76,0000.05,-000.49,0000.25,-000.19,0000.22,-000.06,0000.25,26.2,01.7,0666.1,34.6
2016-06-23T02:38:00Z,0000380,00000600,-000.65,0000.65,0000.46,0000.27,0000.08,-000.14,-000.21,0000.02,-000.10,26.2,01.7,0666.1,34.6
2016-06-23T02:39:00Z,0000380,00000600,-000.50,-000.22,-000.04,0000.00,0000.21,-000.25,0000.08,0000.16,-000.07,26.2,01.8,0666.1,34.6
2016-06-23T02:40:00Z,0000380,00000600,0000.91,0000.38,-000.11,0000.08,0000.33,-000.03,0000.23,-000.01,0000.09,26.2,01.8,0666.1,34.6
2016-06-23T02:41:00Z,0000380,00000600,0000.41,0000.51,0000.16,0000.03,0000.05,0000.33,0000.05,-000.09,-000.07,26.2,01.9,0666.1,34.6
2016-06-23T02:42:00Z,0000380,00000600,0000.84,0000.73,0000.04,0000.17,0000.43,0000.21,-000.12,0000.14,0000.25,26.2,01.9,0666.1,34.6
2016-06-23T02:43:00Z,0000380,00000600,0000.76,0000.56,0000.22,-000.32,0000.13,0000.22,0000.12,0000.15,-000.31,26.2,01.8,0666.1,34.6
2016-06-23T02:44:00Z,0000380,00000600,-000.08,0000.38,0000.03,-000.44,0000.17,-000.10,0000.10,-000.07,0000.38,26.2,01.9,0666.1,34.6
2016-06-23T02:45:00Z,0000380,00000600,0000.88,-000.11,-000.02,-000.19,0000.36,-000.13,0000.21,0000.21,-000.10,26.2,01.8,0666.1,34.6
2016-06-23T02:46:00Z,0000380,00000600,0000.86,0000.62,-000.40,-000.25,0000.19,-000.16,-000.04,0000.21,0000.39,26.2,01.9,0666.1,34.6
2016-06-23T02:47:00Z,0000380,00000600,0000.91,0000.10,0000.27,-000.59,-000.06,0000.08,0000.05,-000.12,0000.01,26.2,02.1,0666.1,34.6
2016-06-23T02:48:00Z,0000380,00000600,0000.82,0000.11,-000.11,-000.06,0000.30,0000.03,0000.23,0000.10,0000.06,26.2,02.0,0666.0,34.6
2016-06-23T02:49:00Z,0000380,00000600,0000.36,0000.85,-000.33,0000.14,-000.17,0000.19,-000.10,-000.04,-000.22,26.2,02.0,0666.0,34.6
2016-06-23T02:50:00Z,0000380,00000600,0000.27,0000.70,0000.11,-000.30,0000.22,0000.14,-000.02,0000.05,0000.18,26.1,02.1,0666.0,34.6
2016-06-23T02:51:00Z,0000380,00000600,0000.84,-000.38,0000.10,0000.33,0000.08,0000.19,0000.16,0000.09,-000.04,26.1,02.1,0666.0,34.6
2016-06-23T02:52:00Z,0000380,00000600,0000.48,0000.16,-000.14,0000.05,0000.13,0000.05,0000.09,0000.11,0000.27,26.1,02.1,0666.0,34.6
2016-06-23T02:53:00Z,0000380,00000600,0000.27,0000.27,-000.16,-000.06,0000.13,0000.29,-000.08,-000.01,-000.13,26.1,02.0,0666.0,34.6
2016-06-23T02:54:00Z,0000380,00000600,0000.42,-000.26,0000.19,0000.35,0000.43,0000.21,0000.07,-000.05,-000.00,26.1,02.0,0666.0,34.6
2016-06-23T02:55:00Z,0000380,00000600,0000.36,0000.49,0000.00,-000.22,0000.14,0000.17,-000.03,0000.04,0000.20,26.1,02.1,0666.0,34.6
2016-06-23T02:56:00Z,0000380,00000600,0000.94,0000.29,0000.00,0000.43,0000.55,0000.21,-000.03,-000.01,-000.03,26.1,02.1,0666.0,34.6
2016-06-23T02:57:00Z,0000380,40000600,,,,,,,,,,,,0665.9,34.6
2016-06-23T02:58:00Z,0000380,60000600,,,,,,,,,,26.0,02.2,0665.1,34.6
2016-06-23T02:59:00Z,0000380,20000600,,,,,,,,,,26.0,02.2,0665.1,34.6
2016-06-23T03:00:00Z,0000380,20000600,,,,,,,,,,26.0,02.2,0665.1,34.5
2016-06-23T03:01:00Z,0000380,20000600,,,,,,,,,,26.0,02.0,0665.1,34.5
2016-06-23T03:02:00Z,0000380,20000600,,,,,,,,,,26.0,02.2,0665.1,34.5
2016-06-23T03:03:00Z,0000380,60000600,,,,,,,,,,26.0,02.2,0665.1,34.5
2016-06-23T03:04:00Z,0000380,40000600,-000.66,-000.27,0000.17,-000.06,0000.09,-000.05,0000.17,0000.17,0000.11,26.1,02.1,0665.9,34.5
2016-06-23T03:05:00Z,0000380,00000600,0000.98,0000.91,0000.12,-000.10,0000.19,0000.03,0000.09,-000.06,-000.10,26.2,02.2,0665.9,34.5
2016-06-23T03:06:00Z,0000380,00000600,0000.73,-000.16,0000.13,0000.10,0000.30,-000.03,0000.04,0000.11,0000.13,26.2,02.1,0665.9,34.5
2016-06-23T03:07:00Z,0000380,00000600,0000.15,0000.75,0000.30,-000.43,0000.19,0000.00,0000.18,-000.01,-000.07,26.2,02.1,0665.9,34.5
2016-06-23T03:08:00Z,0000380,00000600,0000.08,-000.31,0000.57,-000.35,0000.02,0000.00,0000.01,-000.01,0000.33,26.2,02.2,0665.9,34.5
2016-06-23T03:09:00Z,0000380,00000600,-000.32,0000.53,0000.53,0000.43,0000.21,-000.13,0000.16,0000.08,0000.05,26.2,02.2,0665.9,34.5
2016-06-23T03:10:00Z,0000380,00000600,0000.83,0000.10,0000.29,0000.17,0000.17,0000.02,-000.04,0000.12,-000.16,26.2,02.2,0665.9,34.5
2016-06-23T03:11:00Z,0000380,00000600,0000.40,0000.68,0000.32,-000.38,0000.28,0000.10,-000.21,0000.06,-000.10,26.2,02.2,0665.9,34.5
2016-06-23T03:12:00Z,0000380,00000600,-000.04,-000.02,0000.25,0000.49,0000.32,0000.08,0000.22,-000.01,0000.24,26.2,02.2,0665.8,34.5